Weather History for Jacksonville, IL

Change the Weather History Date:

Sunday, January 20, 2013

  Actual Average (KSPI) Record (KSPI)
Temperature  
Mean Temperature 30 °F 26 °F  
Max Temperature 40 °F 35 °F 71 °F (1906)
Min Temperature 20 °F 18 °F -21 °F (1985)
Degree Days  
Heating Degree Days 35 38  
Month to date heating degree days 767  
Since 1 July heating degree days 2907  
Cooling Degree Days 0 0  
Month to date cooling degree days 0  
Year to date cooling degree days 0  
Moisture  
Dew Point 14 °F    
Average Humidity 62    
Maximum Humidity 78    
Minimum Humidity 51    
Precipitation  
Precipitation 0.00 in 0.05 in 1.55 in (1898)
Month to date precipitation 1.22  
Year to date precipitation 1.22  
Snow  
Snow 0.00 in 0.20 in 5.60 in (1922)
Month to date snowfall 4.1  
Since 1 July snowfall 10.3  
Snow Depth -    
Sea Level Pressure  
Sea Level Pressure 30.31 in    
Wind  
Wind Speed 11 mph (NW)    
Max Wind Speed 20 mph    
Max Gust Speed 30 mph    
Visibility 10 miles    
Events      
T = Trace of Precipitation, MM = Missing Value Source: NWS Daily Summary

Daily Weather History Graph

Daily Weather History Graph

Search for Another Location

Airport:

Trip Planner

Search our weather history database for the weather conditions in past years. The results will help you decide how hot, cold, wet, or windy it might be!

Date:

Astronomy

Jan. 20, 2013 Rise Set
Actual Time 7:17 AM CST 5:06 PM CST
Civil Twilight 6:48 AM CST 5:36 PM CST
Nautical Twilight 6:15 AM CST 6:09 PM CST
Astronomical Twilight 5:43 AM CST 6:41 PM CST
Moon 12:07 PM CST 1:50 AM CST
Length of Visible Light 10h 47m
Length of Day
9h 48m
Waxing Gibbous, 66% of the Moon is Illuminated
Jan 20
Waxing Gibbous
Jan 26
Full
Feb 3
Last Quarter
Feb 10
New
Feb 17
First Quarter

Hourly Weather History & Observations

Time (CST) Temp. Windchill Dew Point Humidity Pressure Visibility Wind Dir Wind Speed Gust Speed Precip Events Conditions
12:15 AM 40.5 °F 32.5 °F 29.7 °F 65% 30.12 in 10.0 mi WNW 15.0 mph 24.2 mph N/A   Clear
12:35 AM 39.7 °F 30.6 °F 25.3 °F 56% 30.13 in 10.0 mi NW 18.4 mph 29.9 mph N/A   Clear
12:55 AM 38.7 °F 29.8 °F 23.0 °F 53% 30.15 in 10.0 mi WNW 16.1 mph 26.5 mph N/A   Clear
1:15 AM 37.0 °F 27.7 °F 26.6 °F 66% 30.17 in 10.0 mi NW 16.1 mph 26.5 mph N/A   Clear
1:35 AM 34.0 °F 23.0 °F 27.0 °F 75% 30.19 in 10.0 mi NNW 18.4 mph 27.6 mph N/A   Clear
1:55 AM 32.0 °F 20.1 °F 25.0 °F 75% 30.20 in 10.0 mi NW 19.6 mph 25.3 mph N/A   Clear
2:15 AM 31.8 °F 21.4 °F 23.9 °F 73% 30.22 in 10.0 mi NW 15.0 mph 21.9 mph N/A   Clear
2:35 AM 31.3 °F 20.3 °F 19.4 °F 61% 30.23 in 10.0 mi NW 16.1 mph 29.9 mph N/A   Clear
2:55 AM 29.8 °F 18.9 °F 19.0 °F 64% 30.25 in 10.0 mi NW 15.0 mph 21.9 mph N/A   Clear
3:15 AM 28.6 °F 17.2 °F 16.7 °F 61% 30.26 in 10.0 mi NW 15.0 mph - N/A   Clear
3:35 AM 28.0 °F 19.3 °F 15.6 °F 60% 30.27 in 10.0 mi NW 9.2 mph - N/A   Clear
3:55 AM 27.5 °F 15.4 °F 14.2 °F 57% 30.28 in 10.0 mi WNW 16.1 mph - N/A   Clear
4:15 AM 27.3 °F 17.1 °F 13.6 °F 56% 30.28 in 10.0 mi NW 11.5 mph - N/A   Clear
4:35 AM 26.6 °F 15.2 °F 13.1 °F 57% 30.27 in 10.0 mi NW 13.8 mph - N/A   Clear
4:55 AM 26.1 °F 15.6 °F 13.8 °F 60% 30.27 in 10.0 mi NW 11.5 mph - N/A   Clear
5:15 AM 25.5 °F 14.9 °F 13.3 °F 60% 30.27 in 10.0 mi NW 11.5 mph 17.3 mph N/A   Clear
5:35 AM 24.6 °F 13.8 °F 13.8 °F 64% 30.29 in 10.0 mi NW 11.5 mph - N/A   Clear
5:55 AM 23.9 °F 12.3 °F 12.2 °F 61% 30.30 in 10.0 mi NW 12.7 mph 17.3 mph N/A   Clear
6:15 AM 23.7 °F 11.5 °F 10.4 °F 57% 30.31 in 10.0 mi NW 13.8 mph - N/A   Clear
6:35 AM 23.0 °F 10.6 °F 9.9 °F 57% 30.32 in 10.0 mi NW 13.8 mph - N/A   Clear
6:55 AM 22.1 °F 9.5 °F 9.7 °F 59% 30.32 in 10.0 mi NW 13.8 mph 17.3 mph N/A   Clear
7:15 AM 21.9 °F 11.0 °F 9.7 °F 59% 30.33 in 10.0 mi NNW 10.4 mph - N/A   Clear
7:35 AM 21.6 °F 11.3 °F 9.1 °F 59% 30.34 in 10.0 mi NW 9.2 mph - N/A   Clear
7:55 AM 21.7 °F 12.3 °F 9.5 °F 59% 30.34 in 10.0 mi NW 8.1 mph - N/A   Clear
8:15 AM 21.6 °F - 9.9 °F 61% 30.35 in 10.0 mi Calm Calm - N/A   Clear
8:35 AM 21.6 °F - 9.9 °F 61% 30.35 in 10.0 mi Calm Calm - N/A   Clear
8:55 AM 22.1 °F - 10.2 °F 60% 30.35 in 10.0 mi Calm Calm - N/A   Clear
9:15 AM 23.0 °F 17.0 °F 10.8 °F 60% 30.36 in 10.0 mi NNW 4.6 mph - N/A   Clear
9:35 AM 23.5 °F - 11.3 °F 60% 30.36 in 10.0 mi Calm Calm - N/A   Clear
9:55 AM 23.9 °F 18.0 °F 11.7 °F 60% 30.37 in 10.0 mi WNW 4.6 mph - N/A   Clear
10:15 AM 23.9 °F - 12.7 °F 62% 30.37 in 10.0 mi Calm Calm - N/A   Clear
10:35 AM 24.6 °F - 12.2 °F 59% 30.36 in 10.0 mi Calm Calm - N/A   Clear
10:55 AM 24.4 °F - 11.7 °F 58% 30.36 in 10.0 mi Calm Calm - N/A   Clear
11:15 AM 24.6 °F 17.7 °F 10.6 °F 55% 30.36 in 10.0 mi NW 5.8 mph - N/A   Clear
11:35 AM 24.6 °F - 9.5 °F 53% 30.34 in 10.0 mi Calm Calm - N/A   Scattered Clouds
11:55 AM 25.3 °F 16.7 °F 10.4 °F 53% 30.33 in 10.0 mi NW 8.1 mph - N/A   Mostly Cloudy
12:15 PM 26.4 °F 22.4 °F 10.8 °F 52% 30.33 in 10.0 mi WNW 3.5 mph - N/A   Overcast
12:35 PM 27.0 °F 20.5 °F 11.8 °F 53% 30.33 in 10.0 mi NW 5.8 mph - N/A   Mostly Cloudy
12:55 PM 26.6 °F 18.2 °F 11.3 °F 53% 30.33 in 10.0 mi NW 8.1 mph - N/A   Mostly Cloudy
1:15 PM 27.0 °F 18.7 °F 11.3 °F 52% 30.32 in 10.0 mi NW 8.1 mph - N/A   Mostly Cloudy
1:35 PM 27.0 °F 18.0 °F 12.4 °F 54% 30.33 in 10.0 mi WNW 9.2 mph - N/A   Mostly Cloudy
1:55 PM 27.5 °F 18.6 °F 13.3 °F 55% 30.33 in 10.0 mi NW 9.2 mph - N/A   Mostly Cloudy
2:15 PM 27.1 °F 21.8 °F 13.3 °F 56% 30.33 in 10.0 mi NW 4.6 mph - N/A   Mostly Cloudy
2:35 PM 26.6 °F 16.8 °F 12.2 °F 55% 30.33 in 10.0 mi NNW 10.4 mph - N/A   Overcast
2:55 PM 26.6 °F 18.2 °F 10.4 °F 51% 30.33 in 10.0 mi NW 8.1 mph - N/A   Overcast
3:15 PM 26.4 °F - 11.8 °F 54% 30.33 in 10.0 mi Calm Calm - N/A   Overcast
3:35 PM 26.6 °F 18.2 °F 12.4 °F 55% 30.32 in 10.0 mi WNW 8.1 mph - N/A   Mostly Cloudy
3:55 PM 26.2 °F - 12.2 °F 55% 30.32 in 10.0 mi Calm Calm - N/A   Mostly Cloudy
4:15 PM 26.2 °F 17.8 °F 12.0 °F 55% 30.31 in 10.0 mi NNW 8.1 mph - N/A   Overcast
4:35 PM 25.9 °F 17.4 °F 11.7 °F 55% 30.32 in 10.0 mi NW 8.1 mph - N/A   Overcast
4:55 PM 25.7 °F 16.4 °F 12.0 °F 56% 30.33 in 10.0 mi NNW 9.2 mph - N/A   Overcast
5:15 PM 25.5 °F 16.2 °F 11.7 °F 56% 30.33 in 10.0 mi NNW 9.2 mph - N/A   Overcast
5:35 PM 25.2 °F 16.5 °F 10.9 °F 55% 30.32 in 10.0 mi NNW 8.1 mph - N/A   Overcast
5:55 PM 25.2 °F 16.5 °F 11.8 °F 57% 30.33 in 10.0 mi NW 8.1 mph - N/A   Overcast
6:15 PM 24.8 °F 14.6 °F 13.3 °F 62% 30.33 in 10.0 mi NW 10.4 mph - N/A   Overcast
6:35 PM 24.6 °F - 14.4 °F 65% 30.33 in 10.0 mi Calm Calm - N/A   Overcast
6:55 PM 24.3 °F 14.6 °F 13.3 °F 63% 30.33 in 10.0 mi NW 9.2 mph - N/A   Overcast
7:15 PM 23.9 °F 14.2 °F 13.8 °F 65% 30.33 in 10.0 mi NW 9.2 mph - N/A   Overcast
7:35 PM 23.7 °F 14.0 °F 13.3 °F 64% 30.32 in 10.0 mi NW 9.2 mph - N/A   Overcast
7:55 PM 23.5 °F 13.7 °F 13.8 °F 66% 30.31 in 10.0 mi NW 9.2 mph - N/A   Overcast
8:15 PM 23.5 °F 13.7 °F 14.5 °F 69% 30.32 in 10.0 mi NW 9.2 mph - N/A   Overcast
8:35 PM 23.0 °F 11.7 °F 14.5 °F 70% 30.32 in 10.0 mi NW 11.5 mph - N/A   Overcast
8:55 PM 22.8 °F 12.2 °F 14.9 °F 72% 30.32 in 10.0 mi NW 10.4 mph - N/A   Overcast
9:15 PM 22.8 °F 12.2 °F 15.4 °F 73% 30.31 in 10.0 mi NW 10.4 mph - N/A   Overcast
9:35 PM 22.6 °F 12.6 °F 15.8 °F 75% 30.32 in 10.0 mi NW 9.2 mph - N/A   Overcast
9:55 PM 22.6 °F 11.3 °F 16.2 °F 76% 30.32 in 10.0 mi WNW 11.5 mph - N/A   Overcast
10:15 PM 22.1 °F 10.6 °F 15.1 °F 74% 30.32 in 10.0 mi NW 11.5 mph - N/A   Overcast
10:35 PM 22.1 °F 11.3 °F 15.6 °F 76% 30.33 in 10.0 mi NW 10.4 mph - N/A   Overcast
10:55 PM 21.9 °F 13.4 °F 15.1 °F 75% 30.32 in 10.0 mi NW 6.9 mph - N/A   Overcast
11:15 PM 21.0 °F - 14.7 °F 77% 30.32 in 10.0 mi Calm Calm - N/A   Overcast
11:35 PM 20.7 °F - 14.9 °F 78% 30.32 in 10.0 mi Calm Calm - N/A   Overcast
11:55 PM 20.3 °F 7.7 °F 13.1 °F 74% 30.31 in 10.0 mi WNW 12.7 mph - N/A   Scattered Clouds